FW9592 Weather Reports


Display with metric or nautical units.
time (UTC)temp
F
wind
direction
speed
MPH
gust
MPH
rain 1hr
in
rain 24hr
in
rain mn
in
humidity
%
barometer
mb
20260504081557 39 344 1.0 2.0 0.00 0.00 0.00 72 1012.1
20260504080517 39 344 1.0 2.0 0.00 0.00 0.00 72 1012.1
20260504050516 38 0.0 0.0 0.00 0.00 0.00 78 1011.6
20260504045516 38 0.0 0.0 0.00 0.00 0.00 77 1011.7
20260504044516 39 277 1.0 2.0 0.00 0.00 0.00 77 1011.7
20260504043516 38 0.0 0.0 0.00 0.00 0.00 77 1011.7
20260504042516 39 277 0.0 1.0 0.00 0.00 0.00 76 1011.7
20260504041516 39 277 0.0 1.0 0.00 0.00 0.00 73 1011.7
20260504040516 39 0.0 0.0 0.00 0.00 0.00 73 1011.7
20260504035516 39 0.0 0.0 0.00 0.00 0.00 75 1011.7
20260504034516 39 0.0 0.0 0.00 0.00 0.00 77 1011.7
20260504033516 38 0.0 0.0 0.00 0.00 0.00 76 1011.7
20260504032516 38 0.0 1.0 0.00 0.00 0.00 76 1011.7
20260504031536 38 0.0 0.0 0.00 0.00 0.00 75 1011.7
20260504030516 38 0.0 0.0 0.00 0.00 0.00 74 1011.8
20260504025516 38 0.0 0.0 0.00 0.00 0.00 74 1011.7
20260504024516 39 277 0.0 2.0 0.00 0.00 0.00 75 1011.8
20260504023516 39 0.0 0.0 0.00 0.00 0.00 72 1011.8
20260504022516 39 277 0.0 2.0 0.00 0.00 0.00 73 1011.7
20260504021516 40 0.0 0.0 0.00 0.00 0.00 71 1011.6
20260504020516 40 0.0 0.0 0.00 0.00 0.00 71 1011.6
20260504015516 41 277 1.0 2.0 0.00 0.00 0.00 71 1011.5
20260504014516 41 0.0 0.0 0.00 0.00 0.00 69 1011.5
20260504013516 41 277 0.0 2.0 0.00 0.00 0.00 70 1011.5
20260504012516 42 0.0 1.0 0.00 0.00 0.00 66 1011.5
20260504011516 42 277 1.0 2.0 0.00 0.00 0.00 65 1011.4
20260504010536 42 277 2.0 3.0 0.00 0.00 0.00 65 1011.2
20260504005516 42 277 1.0 2.0 0.00 0.00 0.00 63 1011.2
20260504004516 43 277 2.0 3.0 0.00 0.00 0.00 63 1011.1
20260504003536 43 277 1.0 3.0 0.00 0.00 0.00 63 1011.1
20260504002516 44 277 1.0 3.0 0.00 0.00 0.00 61 1011.0
20260504001516 44 277 1.0 3.0 0.00 0.00 0.00 61 1010.9
20260504000516 45 227 1.0 3.0 0.00 0.00 0.00 59 1010.9
20260503235516 45 262 0.0 3.0 0.00 0.00 0.00 57 1010.8
20260503234516 45 249 1.0 4.0 0.00 0.00 0.00 57 1010.7
20260503233516 46 269 1.0 4.0 0.00 0.00 0.00 56 1010.6
20260503232556 46 241 2.0 5.0 0.00 0.00 0.00 55 1010.7
20260503231537 46 224 3.0 10.0 0.00 0.00 0.00 55 1010.6
20260503230516 47 215 3.0 8.0 0.00 0.00 0.00 54 1010.5
20260503225516 47 248 3.0 11.0 0.00 0.11 0.11 53 1010.5
20260503224516 47 223 3.0 10.0 0.00 0.11 0.11 51 1010.4
20260503223516 47 220 3.0 10.0 0.00 0.11 0.11 51 1010.3
20260503222516 47 226 3.0 7.0 0.00 0.11 0.11 50 1010.2
20260503221516 48 244 3.0 11.0 0.00 0.11 0.11 49 1010.2
20260503220536 48 222 5.0 11.0 0.00 0.11 0.11 49 1010.1
20260503215536 48 242 3.0 10.0 0.00 0.11 0.11 48 1010.0
20260503214516 48 253 4.0 14.0 0.00 0.11 0.11 47 1009.9
20260503213516 48 298 3.0 21.0 0.00 0.11 0.11 45 1009.7
20260503212516 49 198 5.0 14.0 0.00 0.11 0.11 45 1009.6
20260503211536 50 238 5.0 12.0 0.00 0.11 0.11 43 1009.5
20260503210516 50 230 6.0 12.0 0.00 0.11 0.11 43 1009.5
20260503205516 50 225 7.0 20.0 0.00 0.11 0.11 40 1009.5
20260503204536 51 227 4.0 17.0 0.00 0.11 0.11 41 1009.5
20260503203516 51 217 5.0 14.0 0.00 0.11 0.11 39 1009.5
20260503202516 50 224 5.0 14.0 0.00 0.11 0.11 39 1009.5
20260503201516 50 61 4.0 12.0 0.00 0.11 0.11 39 1009.6
20260503200516 50 247 6.0 19.0 0.00 0.11 0.11 39 1009.7
20260503195517 49 234 8.0 20.0 0.00 0.11 0.11 38 1009.9
20260503194517 50 217 5.0 13.0 0.00 0.11 0.11 40 1010.1
20260503193517 48 209 4.0 12.0 0.00 0.11 0.11 41 1010.1
20260503192517 48 209 4.0 15.0 0.00 0.11 0.11 41 1010.2
20260503191517 49 233 8.0 19.0 0.00 0.11 0.11 41 1010.3
20260503190517 48 228 7.0 15.0 0.00 0.11 0.11 45 1010.3
20260503185517 46 231 5.0 12.0 0.00 0.11 0.11 44 1010.5
20260503184517 47 265 5.0 21.0 0.00 0.11 0.11 44 1010.6
20260503183537 47 232 4.0 12.0 0.00 0.11 0.11 45 1010.7
20260503182517 48 218 4.0 12.0 0.00 0.11 0.11 44 1010.7
20260503181517 47 282 6.0 14.0 0.00 0.11 0.11 46 1010.7
20260503180518 45 250 7.0 16.0 0.00 0.11 0.11 48 1010.7
20260503175517 45 255 3.0 16.0 0.00 0.11 0.11 48 1010.9
20260503174537 45 184 3.0 17.0 0.00 0.11 0.11 50 1010.8
20260503173517 45 184 4.0 21.0 0.00 0.11 0.11 49 1010.8
20260503172517 44 223 5.0 14.0 0.00 0.11 0.11 50 1011.1
20260503171517 42 220 4.0 8.0 0.00 0.11 0.11 53 1011.1
20260503170517 42 235 7.0 16.0 0.00 0.11 0.11 52 1011.1
20260503150516 38 217 4.0 9.0 0.00 0.11 0.11 61 1011.5
20260503130517 36 196 4.0 9.0 0.00 0.11 0.11 71 1011.7
20260503110517 32 223 2.0 13.0 0.00 0.11 0.11 86 1011.0